STARLINK-30910, 58376

Orbit data source: Space-Track

STARLINK-30910, 58376 is a payload satellite owned by SpaceX/Seattle (US) in LEO that was launched on Mon, 20 Nov 2023 UTC via an FALCON 9 launch vehicle from the Air Force Western Test Range (AFWTR). Payload-class satellites include a variety of spacecraft equipped with specific instruments for various scientific and technological missions. These include communications satellites like Starlink; space stations such as the ISS; scientific satellites like the Hubble; Earth observation satellites from companies like Planet Labs, Umbra, and HawkEye 360; GPS; miniature CubeSats for education and research; and military/defense satellites.

Loading next visibility...
Identifier
58376, 2023-178C
Orbit
LEO
Country
Flag of USUS
Related business
Manufacturer
SpaceX/Seattle
Mission
Operational Commercial Communications
Bus & Motor
STARLINK V2M, Unknown motor
Mass
730 kg wet, ~700 kg dry
Launch date (UTC)
2023-11-20 (3 years ago)
Launch vehicle
FALCON 9
Launch site
Air Force Western Test Range (AFWTR)
Object type
Payload
Rocket body
Debris
Shape & HBR
Box + 2 Pan, 17.7 m
Radar Cross Section
33.884 m², Large (>1 m²)

Expand to show TLE details & history
Last TLE update: 2 days ago

TLE from 2 days ago
0 STARLINK-30910
1 58376U 23178C   26171.48492594 -.00000665  00000-0 -85703-5 0  9999
2 58376  53.1596 241.9177 0001191  80.9093 279.2044 15.34372124145653
Epoch: 2026-06-20T11:38Z
TLE epoch observation values (Epoch: 2026-06-20T11:38:17.601Z)
Latitude
-0.00003°
Longitude
158.64546°
Altitude
463.557 km
Speed
7.636 km/s
True Right ascension
16h 07m 40s
True Declination
0° 00' 00"
Sunlit
Object was in full shadow at epoch
Visualization orbit readout
Latitude
Unknown
Longitude
Unknown
Altitude
Unknown
Speed
Unknown
Apparent Right ascension
Unknown
Apparent Declination
Unknown
Sunlit
N/A
Visualization observer readout
Local Sidereal Time
21:27:48
Azimuth
Unknown
Elevation
Unknown
Doppler factor
Unknown
Orbital elements
Apogee altitude
463.858 km
Perigee altitude
462.228 km
Semi-major axis
6,841.18 km
Eccentricity
0.00012
Inclination
53.1596°
RAAN
241.9177°
Arg. of periapsis
80.9093°
True anomaly
279.19093°
Mean anomaly
279.2044°
Eccentric anomaly
279.19766°
Mean motion
3.83572 °/min
Orbital period
93.85 mins
BSTAR
-0.0000085703
Loading maneuver chart data...
Computing Atmospheric mass density...
Loading historical data...
Loading historical data...
Loading historical data...
Loading historical data...
Loading historical data...
Loading historical data...
Loading historical data...

Documentation

Showing up to 5 results
|